When you browse on this site, cookies collect data to enhance your experience and personalize the content and advertising you see.
Visit our Privacy Policy to learn more. By continuing to use the site, you agree to this use of cookies and data.

Météo par heure à Olimpiya

Ce jour, 11 Juillet, Samedi

Heure Température Précipitation Vent Pression Humidité
00:00 +11°C° 0 mm 0 m/s 760 mmHg 92%
01:00 +11°C° 0 mm 0 m/s 760 mmHg 95%
02:00 +10°C° 0 mm 0 m/s 760 mmHg 95%
03:00 +10°C° 0 mm 0 m/s 759 mmHg 96%
04:00 +10°C° 0 mm 0 m/s 759 mmHg 96%
05:00 +12°C° 0 mm 1 m/s 759 mmHg 91%
06:00 +14°C° 0 mm 1 m/s 759 mmHg 85%
07:00 +15°C° 0 mm 1 m/s 759 mmHg 80%
08:00 +18°C° 0 mm 1 m/s 759 mmHg 71%
09:00 +19°C° 0 mm 2 m/s 759 mmHg 62%
10:00 +21°C° 0 mm 2 m/s 758 mmHg 53%
11:00 +22°C° 0 mm 3 m/s 758 mmHg 50%
12:00 +24°C° 0 mm 3 m/s 758 mmHg 46%
13:00 +25°C° 0 mm 4 m/s 758 mmHg 42%
14:00 +23°C° 0 mm 4 m/s 758 mmHg 48%
15:00 +22°C° 0 mm 4 m/s 759 mmHg 54%
16:00 +21°C° 0 mm 4 m/s 759 mmHg 60%
17:00 +19°C° 0 mm 4 m/s 759 mmHg 69%
18:00 +17°C° 0 mm 3 m/s 759 mmHg 78%
19:00 +16°C° 0 mm 2 m/s 759 mmHg 87%
20:00 +16°C° 0 mm 2 m/s 760 mmHg 89%
21:00 +16°C° 0 mm 2 m/s 760 mmHg 90%
22:00 +15°C° 0 mm 2 m/s 760 mmHg 91%
23:00 +15°C° 0 mm 2 m/s 760 mmHg 92%

Demain, 12 Juillet, Dimanche

Heure Température Précipitation Vent Pression Humidité
00:00 +15°C° 0 mm 2 m/s 760 mmHg 92%
01:00 +14°C° 0 mm 2 m/s 760 mmHg 92%
02:00 +14°C° 0 mm 2 m/s 760 mmHg 92%
03:00 +14°C° 0 mm 2 m/s 760 mmHg 92%
04:00 +14°C° 0 mm 2 m/s 760 mmHg 92%
05:00 +14°C° 0 mm 2 m/s 760 mmHg 87%
06:00 +15°C° 0 mm 2 m/s 760 mmHg 82%
07:00 +16°C° 0 mm 2 m/s 760 mmHg 76%
08:00 +17°C° 0 mm 2 m/s 760 mmHg 67%
09:00 +19°C° 0 mm 2 m/s 761 mmHg 57%
10:00 +21°C° 0 mm 2 m/s 761 mmHg 47%
11:00 +23°C° 0 mm 2 m/s 760 mmHg 44%
12:00 +24°C° 0 mm 2 m/s 760 mmHg 42%
13:00 +24°C° 0 mm 2 m/s 760 mmHg 39%
14:00 +24°C° 0 mm 2 m/s 759 mmHg 39%
15:00 +24°C° 0 mm 2 m/s 759 mmHg 40%
16:00 +24°C° 0 mm 3 m/s 759 mmHg 40%
17:00 +23°C° 0 mm 2 m/s 759 mmHg 45%
18:00 +20°C° 0 mm 2 m/s 759 mmHg 50%
19:00 +19°C° 0 mm 2 m/s 759 mmHg 55%
20:00 +17°C° 0 mm 2 m/s 759 mmHg 65%
21:00 +14°C° 0 mm 1 m/s 760 mmHg 75%
22:00 +11°C° 0 mm 0 m/s 760 mmHg 85%
23:00 +10°C° 0 mm 0 m/s 760 mmHg 88%

Après-demain, 13 Juillet, Lundi

Heure Température Précipitation Vent Pression Humidité
00:00 +9°C° 0 mm 0 m/s 760 mmHg 91%
01:00 +9°C° 0 mm 0 m/s 760 mmHg 94%
02:00 +8°C° 0 mm 0 m/s 760 mmHg 95%
03:00 +8°C° 0 mm 0 m/s 760 mmHg 95%
04:00 +8°C° 0 mm 0 m/s 760 mmHg 96%
05:00 +9°C° 0 mm 0 m/s 760 mmHg 89%
06:00 +11°C° 0 mm 0 m/s 760 mmHg 83%
07:00 +13°C° 0 mm 0 m/s 760 mmHg 77%
08:00 +15°C° 0 mm 0 m/s 760 mmHg 67%
09:00 +18°C° 0 mm 0 m/s 760 mmHg 57%
10:00 +23°C° 0 mm 1 m/s 759 mmHg 47%
11:00 +24°C° 0 mm 1 m/s 759 mmHg 42%
12:00 +26°C° 0 mm 1 m/s 759 mmHg 38%
13:00 +27°C° 0 mm 1 m/s 759 mmHg 34%
14:00 +27°C° 0 mm 1 m/s 759 mmHg 33%
15:00 +27°C° 0 mm 2 m/s 759 mmHg 33%
16:00 +27°C° 0 mm 2 m/s 758 mmHg 33%
17:00 +25°C° 0 mm 2 m/s 758 mmHg 42%
18:00 +23°C° 0 mm 2 m/s 758 mmHg 50%
19:00 +20°C° 0 mm 2 m/s 758 mmHg 59%
20:00 +18°C° 0 mm 1 m/s 759 mmHg 70%
21:00 +15°C° 0 mm 1 m/s 759 mmHg 81%
22:00 +12°C° 0 mm 1 m/s 759 mmHg 92%
23:00 +12°C° 0 mm 1 m/s 759 mmHg 93%

14 Juillet, Mardi

Heure Température Précipitation Vent Pression Humidité
00:00 +11°C° 0 mm 1 m/s 759 mmHg 95%
01:00 +10°C° 0 mm 0 m/s 759 mmHg 96%
02:00 +9°C° 0 mm 0 m/s 759 mmHg 96%
03:00 +9°C° 0 mm 0 m/s 759 mmHg 97%
04:00 +9°C° 0 mm 0 m/s 759 mmHg 97%
05:00 +10°C° 0 mm 0 m/s 760 mmHg 91%
06:00 +12°C° 0 mm 0 m/s 760 mmHg 85%
07:00 +14°C° 0 mm 0 m/s 760 mmHg 79%
08:00 +17°C° 0 mm 0 m/s 760 mmHg 67%
09:00 +20°C° 0 mm 0 m/s 760 mmHg 56%
10:00 +23°C° 0 mm 0 m/s 760 mmHg 45%
11:00 +26°C° 0 mm 1 m/s 760 mmHg 41%
12:00 +28°C° 0 mm 1 m/s 759 mmHg 36%
13:00 +29°C° 0 mm 1 m/s 759 mmHg 32%
14:00 +29°C° 0 mm 1 m/s 759 mmHg 33%
15:00 +29°C° 0 mm 2 m/s 759 mmHg 34%
16:00 +28°C° 0 mm 2 m/s 759 mmHg 35%
17:00 +26°C° 0 mm 2 m/s 759 mmHg 42%
18:00 +24°C° 0 mm 2 m/s 759 mmHg 50%
19:00 +21°C° 0 mm 2 m/s 759 mmHg 57%
20:00 +20°C° 0 mm 1 m/s 759 mmHg 65%
21:00 +16°C° 0 mm 1 m/s 759 mmHg 73%
22:00 +14°C° 0 mm 1 m/s 760 mmHg 81%
23:00 +13°C° 0 mm 1 m/s 760 mmHg 85%

15 Juillet, Mercredi

Heure Température Précipitation Vent Pression Humidité
00:00 +12°C° 0 mm 1 m/s 759 mmHg 88%
01:00 +12°C° 0 mm 1 m/s 759 mmHg 92%
02:00 +11°C° 0 mm 1 m/s 759 mmHg 94%
03:00 +11°C° 0 mm 1 m/s 759 mmHg 95%
04:00 +11°C° 0 mm 1 m/s 759 mmHg 97%
05:00 +12°C° 0 mm 1 m/s 759 mmHg 91%
06:00 +13°C° 0 mm 0 m/s 759 mmHg 85%
07:00 +15°C° 0 mm 0 m/s 759 mmHg 80%
08:00 +19°C° 0 mm 1 m/s 759 mmHg 70%
09:00 +22°C° 0 mm 1 m/s 759 mmHg 61%
10:00 +24°C° 0 mm 1 m/s 759 mmHg 52%
11:00 +26°C° 0 mm 1 m/s 759 mmHg 48%
12:00 +27°C° 0 mm 1 m/s 759 mmHg 45%
13:00 +29°C° 0 mm 1 m/s 758 mmHg 41%
14:00 +28°C° 0 mm 2 m/s 758 mmHg 42%
15:00 +28°C° 0 mm 2 m/s 758 mmHg 44%
16:00 +28°C° 0 mm 2 m/s 758 mmHg 45%
17:00 +26°C° 0 mm 2 m/s 758 mmHg 52%
18:00 +24°C° 0 mm 2 m/s 758 mmHg 60%
19:00 +21°C° 0 mm 2 m/s 758 mmHg 67%
20:00 +19°C° 0 mm 2 m/s 758 mmHg 76%
21:00 +18°C° 0 mm 1 m/s 758 mmHg 85%
22:00 +15°C° 0 mm 1 m/s 758 mmHg 94%
23:00 +14°C° 0 mm 1 m/s 758 mmHg 95%

16 Juillet, Jeudi

Heure Température Précipitation Vent Pression Humidité
00:00 +13°C° 0 mm 0 m/s 758 mmHg 95%
01:00 +12°C° 0 mm 0 m/s 758 mmHg 96%
02:00 +12°C° 0 mm 0 m/s 758 mmHg 96%
03:00 +12°C° 0 mm 0 m/s 758 mmHg 96%
04:00 +12°C° 0 mm 0 m/s 758 mmHg 96%
05:00 +13°C° 0 mm 0 m/s 758 mmHg 90%
06:00 +15°C° 0 mm 0 m/s 758 mmHg 84%
07:00 +17°C° 0 mm 0 m/s 758 mmHg 78%
08:00 +22°C° 0 mm 1 m/s 758 mmHg 67%
09:00 +25°C° 0 mm 1 m/s 758 mmHg 57%
10:00 +27°C° 0 mm 1 m/s 758 mmHg 46%
11:00 +29°C° 0 mm 1 m/s 757 mmHg 42%
12:00 +31°C° 0 mm 1 m/s 757 mmHg 38%
13:00 +32°C° 0 mm 2 m/s 757 mmHg 33%
14:00 +32°C° 0 mm 2 m/s 757 mmHg 33%
15:00 +34°C° 0 mm 2 m/s 756 mmHg 33%
16:00 +34°C° 0 mm 2 m/s 756 mmHg 33%
17:00 +30°C° 0 mm 2 m/s 756 mmHg 41%
18:00 +28°C° 0 mm 2 m/s 756 mmHg 49%
19:00 +26°C° 0 mm 1 m/s 756 mmHg 57%
20:00 +24°C° 0 mm 1 m/s 756 mmHg 65%
21:00 +21°C° 0 mm 1 m/s 757 mmHg 73%
22:00 +18°C° 0 mm 1 m/s 757 mmHg 82%
23:00 +18°C° 0 mm 1 m/s 757 mmHg 85%
Voir plus